Showing default

NEMO-HD, 46277

Orbit data source: Space-Track

NEMO-HD, 46277 is a payload satellite owned by Space-SI (SI) in SSO that was launched on Thu, 03 Sep 2020 UTC via a VEGA launch vehicle from the French Guiana (FRGUI). Payload-class satellites include a variety of spacecraft equipped with specific instruments for various scientific and technological missions. These include communications satellites like Starlink; space stations such as the ISS; scientific satellites like the Hubble; Earth observation satellites from companies like Planet Labs, Umbra, and HawkEye 360; GPS; miniature CubeSats for education and research; and military/defense satellites.

Loading next visibility...
Identifier
46277, 2020-061F
Orbit
SSO
Country
Flag of SISI / SVN
Related business
Manufacturer
UTIAS-SFL
Mission
Operational Amateur Imaging
Bus & Motor
NEMO-HD, Unknown motor
Mass
65 kg wet, 65 kg dry
Launch date (UTC)
2020-09-03 (6 years ago)
Launch vehicle
VEGA
Launch site
French Guiana (FRGUI)
Object type
Payload
Rocket body
Debris
Shape & HBR
Oct Cyl, 0.3 m
Radar Cross Section
0.165 m², Medium (>0.1 m² and < 1m²)

Expand to show TLE details & history
Last TLE update: 10 hours ago

TLE from 10 hours ago
0 NEMO-HD
1 46277U 20061F   26235.60728353  .00008780  00000-0  18293-3 0  9996
2 46277  97.1866 296.9157 0002555 113.3616 246.7903 15.45816105332399
Epoch: 2026-08-23T14:34Z
TLE epoch observation values (Epoch: 2026-08-23T14:34:29.296Z)
Latitude
-0.00002°
Longitude
106.39273°
Altitude
432.799 km
Speed
7.652 km/s
True Right ascension
19h 47m 39s
True Declination
0° 00' 00"
Sunlit
Object was in full shadow at epoch
Visualization orbit readout
Latitude
Unknown
Longitude
Unknown
Altitude
Unknown
Speed
Unknown
Apparent Right ascension
Unknown
Apparent Declination
Unknown
Sunlit
N/A
Visualization observer readout
Local Sidereal Time
15:53:01
Azimuth
Unknown
Elevation
Unknown
Doppler factor
Unknown
Orbital elements
Apogee altitude
427.642 km
Perigee altitude
424.165 km
Semi-major axis
6,804.04 km
Eccentricity
0.00026
Inclination
97.1866°
RAAN
296.9157°
Arg. of periapsis
113.3616°
True anomaly
246.76339°
Mean anomaly
246.7903°
Eccentric anomaly
246.77685°
Mean motion
3.86717 °/min
Orbital period
93.09 mins
BSTAR
0.00018293
Loading maneuver chart data...
Computing Atmospheric mass density...

Documentation

Showing up to 5 results
|